User: anonymous   Login
Location: Unspecified
(0.0000°N, 0.0000°E)
Time: 03:16:07
(UTC+00:00)
Language:

METEOR M2 - Orbit

View from above orbital plane
View from above orbital plane
View from above satellite
View from above satellite

Ground track
Ground track

The orbit data is extracted from the following two-line orbital elements,

1 40069U 14037A   19083.86563371 -.00000004  00000-0  17806-4 0  9995
2 40069  98.5631 131.9167 0006398 136.6821 223.4854 14.20660224244234
Epoch (UTC): 24 March 2019 20:46:30
Eccentricity: 0.0006398
inclination: 98.5631°
perigee height: 818 km
apogee height: 828 km
right ascension of ascending node: 131.9167°
argument of perigee: 136.6821°
revolutions per day: 14.20660224
mean anomaly at epoch: 223.4854°
orbit number at epoch: 24423

The dashed part of the orbit path shows where the satellite is in the earth's shadow,  

DLR